Location: Moscow Pond
(43.6842°N, 73.2366°W)
Time: 21:35:53
(UTC+00:00)

Meteor 1-24 Rocket - Pass Details

Date: 08 November 2025
Orbit: 789 x 926 km, 81.3° (Epoch: 10 December)

Event Time Altitude Azimuth Distance (km) Brightness Sun altitude
Rises 10:30:00 0° 212° (SSW) 3,496 6.7 -12.6°
Reaches altitude 10° 10:32:41 10° 221° (SW) 2,541 5.9 -12.2°
Maximum altitude 10:37:59 37° 287° (WNW) 1,327 4.2 -11.2°
Drops below altitude 10° 10:43:09 10° 354° (N) 2,470 5.9 -10.3°
Sets 10:45:43 0° 3° (N) 3,388 6.7 -9.9°
